SL-4 R/B (44799 NORAD) Tracking and Keplerian Element Data

This shows tracking and keplerian element data for the satellite.

Feedback or suggestion? Click here.




ElementValue
Catalog44799
NameSL-4 R/B
Epoch Orbit464
Epoch Day359.1453143
Epoch Year2019
RAAN63.2699
Inclination97.9058
Eccentricity0.0050443
Argument of Perigee317.5037
Mean Anonmoly42.233
Mean Motion15.83042707
Decay Rate0.00024791
L11 44799U 19079C 19359.14531430 .00024791 27437-5 10932-3 0 9996
L22 44799 97.9058 63.2699 0050443 317.5037 42.2330 15.83042707 4645

Live tracking and technical data element details for SL-4 R/B (NORAD 44799). SL-4 R/B can be tracked NOW for your location showing map with azimuth and elevation plus other details from your city location.

Track the satellite on the map from your city or location and see movement details for azimuth, elevation, latitude, longitude, range, height, and movement on the map or in text.







IsCatalogInMostPopularTable: catalog: 44799, numindb: 40
Update: records affected: 1



GetName: 44799 SL-4 R/B

Hit Count: updated at: Mon, 06 Apr 2020 14:47:31 GMT